Regional Weather Roundup
Issued by NWS

Home | Current Version | Previous Version | Graphics & Text | Print | Product List | Glossary Off
Versions: 1 2 3 4 5 6 7 8 9 10 11 12 13 14 15 16 17 18 19 20 21 22 23 24 25 26 27

000
ASUS45 KBOU 191907
RWRCO

WEATHER ROUNDUP FOR COLORADO
NATIONAL WEATHER SERVICE DENVER/BOULDER CO
100 PM MDT WED JUL 19 2017

NOTE: "FAIR" INDICATES FEW OR NO CLOUDS BELOW 12000 FEET WITH NO
SIGNIFICANT WEATHER AND/OR OBSTRUCTIONS TO VISIBILITY.

COZ001>005-013-030-031-192000-
...NORTHWEST COLORADO...

CITY           SKY/WX    TMP DP  RH WIND       PRES   REMARKS
CRAIG          FAIR      93  43  17 VRB7      30.23F
HAYDEN         FAIR      88  45  22 NW7G17    30.27F
MEEKER         FAIR      90  47  22 S13       30.25F
RABBIT EARS PA FAIR      68  45  42 W8        30.64S
STEAMBOAT SPGS FAIR      85  48  28 SW7       30.30F
WALDEN         FAIR      81  39  22 SE3       30.41F
$$

COZ006>008-011-192000-
...WEST CENTRAL VALLEYS...

CITY           SKY/WX    TMP DP  RH WIND       PRES   REMARKS
GRAND JUNCTION FAIR      92  50  23 W9        30.14F
MONTROSE       FAIR      89  48  24 SW8       30.23F
EAGLE          SUNNY     88  48  25 CALM      30.29F
RIFLE          FAIR      91  48  22 VRB6      30.19F
DELTA          FAIR      93  46  20 NE3       30.19F
NUCLA          NOT AVBL
$$

COZ017>023-064>068-192000-
...SOUTHWEST COLORADO...

CITY           SKY/WX    TMP DP  RH WIND       PRES   REMARKS
DURANGO        FAIR      83  48  29 CALM      30.33F
CORTEZ         FAIR      89  51  27 SW12G17   30.26F
PAGOSA SPRINGS FAIR      80  43  26 S7        30.43F
TELLURIDE      LGT RAIN  71  46  41 NW15G30   30.53S
WOLF CREEK PAS FAIR      61  46  59 SW6       30.82S
$$

COZ009-010-012-014-032>034-037-058>063-192000-
...CENTRAL COLORADO...

CITY           SKY/WX    TMP DP  RH WIND       PRES   REMARKS
ASPEN          FAIR      81  44  27 CALM      30.37F
BUENA VISTA    FAIR      78  47  33 SW12      30.38F
COPPER MTN     CLOUDY    64  37  36 CALM      30.76F
BERTHOUD PASS  FAIR      59  43  55 E5        30.81F
COTTONWOOD PAS FAIR      72  39  30 SE5       30.57F
GUNNISON       FAIR      77  48  35 VRB3      30.40F
KREMMLING      FAIR      91  41  17 S5        30.35F
LEADVILLE      PTSUNNY   69  42  37 W10       30.51F
MONARCH PASS   FAIR      63  45  51 SW17G28   30.86F
SALIDA         FAIR      86  42  20 S6        30.42F
SUNLIGHT       PTSUNNY   66  43  42 W5        30.68F
WILKERSON PASS PTSUNNY   68  45  42 SW3       30.71F
$$

COZ069>075-192000-
...SAN LUIS VALLEY/SANGRE DE CRISTO MOUNTAINS...

CITY           SKY/WX    TMP DP  RH WIND       PRES   REMARKS
ALAMOSA        FAIR      79  52  38 S5        30.41F
DEL NORTE      FAIR      76  50  40 SE6       30.44F
LA VETA PASS   NOT AVBL
SAGUACHE         N/A    N/A N/A N/A MISG        N/A
$$

COZ035-036-038>040-192000-
...NORTHERN COLORADO FRONT RANGE...

CITY           SKY/WX    TMP DP  RH WIND       PRES   REMARKS
DENVER INTL AP FAIR      96  43  16 E7        30.13F
DMNS CITY PARK   N/A     95  43  16 NE3G15    30.12F
AURORA         NOT AVBL
FRONT RANGE AP FAIR      97  41  14 NW5       30.15F
ERIE MUNI ARPT FAIR      96  40  14 E7        30.11F
BOULDER MUN AP FAIR      95  46  18 E7        30.12F
CENTENNIAL     FAIR      93  42  17 VRB7      30.18F
BROOMFIELD     FAIR      93  43  17 E8        30.17F
FORT COLLINS   FAIR      95  56  26 S8        30.11F
LONGMONT       FAIR      96  50  20 E7        30.12F
$$

COZ041-046-047-076>085-087-088-192000-
...PIKES PEAK/PALMER DIVIDE AND SOUTHERN FOOTHILLS...

CITY           SKY/WX    TMP DP  RH WIND       PRES   REMARKS
COLO. SPRINGS  FAIR      90  54  29 S14G21    30.23F
A. F. ACADEMY  NOT AVBL
SCHRIEVER AFB  FAIR      88  48  25 S15       30.25F
CHEYENNE MTN   NOT AVBL
ELLICOTT       FAIR     N/A N/A N/A S15G23    30.22F
FALCON           N/A     85  48  26 S13G24    30.30F
FORT CARSON    NOT AVBL
LIMON          FAIR      92  55  28 S16G31    30.16F
MONUMENT HILL  FAIR      84  50  30 S16       30.31F
CANON CITY     SUNNY     93  57  29 E6        30.16F
WALSENBURG     FAIR      95  41  15 W10G16    30.23F
TRINIDAD       FAIR      92  45  19 S17G24    30.22F
$$

COZ042>045-048>051-090-091-192000-
...NORTHEAST COLORADO...

CITY           SKY/WX    TMP DP  RH WIND       PRES   REMARKS
GREELEY ARPT   FAIR      95  59  30 SE7       30.09
AKRON          FAIR      99  50  19 S13G21    30.09F
BURLINGTON     FAIR      95  58  28 S24G33    30.11F
WRAY           NOT AVBL
YUMA           FAIR      91  63  38 SE13G18   30.06F
STERLING       FAIR      99  57  25 W7        30.02F
HOLYOKE        FAIR      97  68  38 S13       30.04F
FORT MORGAN    FAIR      98  49  18 CALM      30.08F
$$

COZ086-089-092>099-192000-
...SOUTHEAST COLORADO...

CITY           SKY/WX    TMP DP  RH WIND       PRES   REMARKS
PUEBLO         FAIR      97  51  21 VRB6      30.10F
LA JUNTA       FAIR      98  55  23 S12       30.10F
LAMAR          FAIR      98  55  23 S15G22    30.06F
SPRINGFIELD      N/A     92  54  27 S17G23    30.15F
$$




USA.gov is the U.S. government's official web portal to all federal, state and local government web resources and services.